Tracking 30995 objects as of 7-Jul-2025
HD Live streaming from Space Station
objects crossing your sky now

METEOR 2-5 DEB

Track METEOR 2-5 DEB now!
10-day predictions


NORAD ID: 35254
Int'l Code: 1979-095V
Perigee: 510.0 km
Apogee: 532.8 km
Inclination: 81.2 °
Period: 94.9 minutes
Semi major axis: 6892 km
RCS: 0.0087 m2 (small)
Launch date: October 31, 1979
Source: Commonwealth of Independent States (former USSR) (CIS)
Launch site: PLESETSK MISSILE AND SPACE COMPLEX (PKMTR)

Note: This is SATELLITE DEBRIS
Your satellite tracking list
FENGYUN 1C DEB
Track 1 satellite(s)




NASA's NSSDC Master Catalog

Two Line Element Set (TLE):
1 35254U 79095V   25180.24598007  .00084932  00000-0  42140-2 0  9999
2 35254  81.1566 180.1296 0016542 119.5536 240.7345 15.17210399135892
Source of the keplerian elements: AFSPC